DW4844 Weather Reports


time (UTC)temp
F
wind
direction
speed
knots
gust
knots
rain 1hr
in
rain 24hr
in
rain mn
in
humidity
%
barometer
mb
20260503021216 44 0.0 0.0 0.00 0.00 0.00 93 1010.8
20260503020216 44 0.0 0.0 0.00 0.00 0.00 93 1010.7
20260503015216 44 0.0 0.0 0.00 0.00 0.00 93 1010.7
20260503014216 44 0.0 0.0 0.00 0.00 0.00 93 1010.7
20260503013216 44 0.0 0.0 0.00 0.00 0.00 93 1010.7
20260503012216 45 0.0 0.0 0.00 0.00 0.00 93 1010.7
20260503011216 45 0.0 0.0 0.00 0.00 0.00 93 1010.8
20260503010216 45 0.0 0.0 0.00 0.00 0.00 93 1010.7
20260503005216 45 0.0 0.0 0.00 0.00 0.00 93 1010.8
20260503004236 45 0.0 0.0 0.00 0.00 0.00 93 1010.8
20260503003216 45 0.0 0.0 0.00 0.00 0.00 93 1010.8
20260503002216 45 0.0 0.0 0.00 0.00 0.00 93 1010.9
20260503001216 45 0.0 0.0 0.00 0.00 0.00 93 1010.9
20260503000218 45 0.0 0.0 0.00 0.00 0.00 93 1011.0
20260502235216 45 0.0 0.0 0.00 0.00 0.00 92 1011.0
20260502234236 45 0.0 0.0 0.00 0.00 0.00 92 1010.9
20260502233215 45 0.0 0.0 0.00 0.00 0.00 92 1011.0
20260502232215 45 0.0 0.0 0.00 0.00 0.00 92 1011.0
20260502231216 45 0.0 0.0 0.00 0.00 0.00 92 1010.9
20260502230216 45 0.0 0.0 0.00 0.00 0.00 92 1011.0
20260502225236 45 0.0 0.0 0.00 0.00 0.00 91 1011.0
20260502224216 45 0.0 0.0 0.00 0.00 0.00 91 1011.1
20260502223216 45 0.0 0.0 0.00 0.00 0.00 91 1011.1
20260502222216 45 0.0 0.0 0.00 0.00 0.00 91 1011.1
20260502221216 45 0.0 0.0 0.00 0.00 0.00 90 1011.1
20260502220216 45 0.0 0.0 0.00 0.00 0.00 90 1011.0
20260502215215 45 0.0 0.0 0.00 0.00 0.00 90 1011.0
20260502214216 45 0.0 0.0 0.00 0.00 0.00 89 1011.0
20260502213216 46 0.0 0.0 0.00 0.00 0.00 89 1010.9
20260502212216 46 0.0 0.0 0.00 0.00 0.00 88 1011.0
20260502211216 47 0.0 0.0 0.00 0.00 0.00 88 1011.0
20260502210216 47 0.0 0.0 0.00 0.00 0.00 87 1011.0
20260502205216 47 0.0 0.0 0.00 0.00 0.00 87 1011.0
20260502204216 0 0.0 0.0 0.00 0.00 0.00
20260502203216 47 0.0 0.0 0.00 0.00 0.00 84 1011.1
20260502202216 48 0.0 0.0 0.00 0.00 0.00 83 1011.0
20260502201216 48 0.0 0.0 0.00 0.00 0.00 83 1011.0
20260502200235 48 0.0 0.0 0.00 0.00 0.00 83 1010.8
20260502195215 49 0.0 0.0 0.00 0.00 0.00 83 1010.9
20260502194216 49 0.0 0.0 0.00 0.00 0.00 83 1010.8
20260502193216 49 0.0 0.0 0.00 0.00 0.00 82 1010.7
20260502192216 49 0.0 0.0 0.00 0.00 0.00 81 1010.6
20260502191216 49 0.0 0.0 0.00 0.00 0.00 82 1010.6
20260502190215 49 0.0 0.0 0.00 0.00 0.00 82 1010.5
20260502185236 50 0.0 0.0 0.00 0.00 0.00 80 1010.5
20260502184216 51 0.0 0.0 0.00 0.00 0.00 79 1010.4
20260502183215 51 0.0 0.0 0.00 0.00 0.00 78 1010.4
20260502182215 51 0.0 0.0 0.00 0.00 0.00 78 1010.4
20260502181235 51 0.0 0.0 0.00 0.00 0.00 77 1010.4
20260502180215 51 0.0 0.0 0.00 0.00 0.00 76 1010.4
20260502170215 53 0.0 0.0 0.00 0.00 0.00 79 1010.3
20260502164215 53 0.0 0.0 0.00 0.00 0.00 80 1010.4
20260502163215 52 0.0 0.0 0.00 0.00 0.00 80 1010.4
20260502162216 52 0.0 0.0 0.00 0.00 0.00 80 1010.5
20260502161215 52 0.0 0.0 0.00 0.00 0.00 80 1010.6
20260502160215 52 0.0 0.0 0.00 0.00 0.00 80 1010.7
20260502152236 53 0.0 0.0 0.00 0.00 0.00 78 1010.7
20260502151215 53 0.0 0.0 0.00 0.00 0.00 80 1010.8
20260502150215 53 0.0 0.0 0.00 0.00 0.00 79 1010.8
20260502130215 56 0.0 0.0 0.00 0.00 0.00 74 1012.0
20260502123215 55 0.0 0.0 0.00 0.00 0.00 77 1011.9
20260502122215 56 0.0 0.0 0.00 0.00 0.00 75 1012.0
20260502121235 56 0.0 0.0 0.00 0.00 0.00 69 1012.1
20260502120215 57 0.0 0.0 0.00 0.00 0.00 62 1011.9
20260502115236 57 0.0 0.0 0.00 0.00 0.00 53 1012.1
20260502113215 57 0.0 0.0 0.00 0.00 0.00 58 1012.0
20260502112216 56 0.0 0.0 0.00 0.00 0.00 58 1011.9
20260502111235 56 0.0 0.0 0.00 0.00 0.00 59 1011.9
20260502110216 56 0.0 0.0 0.00 0.00 0.00 54 1011.7
20260502105215 56 0.0 0.0 0.00 0.00 0.00 54 1011.7
20260502104215 56 0.0 0.0 0.00 0.00 0.00 57 1012.0
20260502103215 56 0.0 0.0 0.00 0.00 0.00 58 1012.4
20260502102255 56 0.0 0.0 0.00 0.00 0.00 58 1012.5
20260502101216 56 0.0 0.0 0.00 0.00 0.00 61 1012.6
20260502100216 56 0.0 0.0 0.00 0.00 0.00 60 1012.6
20260502091215 54 0.0 0.0 0.00 0.00 0.00 63 1012.9
20260502090216 54 0.0 0.0 0.00 0.00 0.00 62 1012.9
20260502071216 53 0.0 0.0 0.00 0.00 0.00 60 1013.0
20260502070216 53 0.0 0.0 0.00 0.00 0.00 60 1013.0
20260502065216 52 0.0 0.0 0.00 0.00 0.00 60 1013.0
20260502064215 52 0.0 0.0 0.00 0.00 0.00 59 1012.9
20260502063215 52 0.0 0.0 0.00 0.00 0.00 59 1013.1
20260502062216 52 0.0 0.0 0.00 0.00 0.00 58 1013.1
20260502061216 52 0.0 0.0 0.00 0.00 0.00 58 1013.0
20260502060215 52 0.0 0.0 0.00 0.00 0.00 57 1013.1
20260502055215 51 0.0 0.0 0.00 0.00 0.00 59 1013.1
20260502054215 50 0.0 0.0 0.00 0.00 0.00 59 1013.3
20260502053216 49 0.0 0.0 0.00 0.00 0.00 60 1013.3
20260502052216 49 0.0 0.0 0.00 0.00 0.00 61 1013.2
20260502051216 48 0.0 0.0 0.00 0.00 0.00 62 1013.3
20260502050215 47 0.0 0.0 0.00 0.00 0.00 62 1013.4
20260502045235 47 0.0 0.0 0.00 0.00 0.00 62 1013.6
20260502044235 47 0.0 0.0 0.00 0.00 0.00 62 1013.8
20260502043216 46 0.0 0.0 0.00 0.00 0.00 64 1014.0
20260502042215 46 0.0 0.0 0.00 0.00 0.00 64 1014.1
20260502041215 46 0.0 0.0 0.00 0.00 0.00 63 1014.1
20260502040216 46 0.0 0.0 0.00 0.00 0.00 62 1014.1
20260502035216 47 0.0 0.0 0.00 0.00 0.00 61 1014.2
20260502034215 48 0.0 0.0 0.00 0.00 0.00 59 1014.3
20260502033216 48 0.0 0.0 0.00 0.00 0.00 58 1014.3
20260502032216 48 0.0 0.0 0.00 0.00 0.00 58 1014.4
20260502031216 48 0.0 0.0 0.00 0.00 0.00 59 1014.5
20260502030215 48 0.0 0.0 0.00 0.00 0.00 59 1014.7
20260502025216 48 0.0 0.0 0.00 0.00 0.00 60 1014.8
20260502024216 48 0.0 0.0 0.00 0.00 0.00 60 1014.9
20260502023216 48 0.0 0.0 0.00 0.00 0.00 60 1015.1
20260502022215 49 0.0 0.0 0.00 0.00 0.00 59 1015.3